| time (UTC) | temp F | wind direction | speed MPH | gust MPH | rain 1hr in | rain 24hr in | rain mn in | humidity % | barometer mb |
| 20260504034519 | 63 | 276 | 6.0 | 19.0 | 0.00 | 0.00 | 0.00 | 41 | 998.3 |
| 20260504033016 | 64 | 255 | 7.0 | 16.0 | 0.00 | 0.00 | 0.00 | 41 | 998.8 |
| 20260504031514 | 64 | 279 | 6.0 | 16.0 | 0.00 | 0.00 | 0.00 | 40 | 999.2 |
| 20260504030014 | 65 | 235 | 5.0 | 17.0 | 0.00 | 0.00 | 0.00 | 38 | 999.6 |
| 20260504024510 | 66 | 287 | 6.0 | 14.0 | 0.00 | 0.00 | 0.00 | 37 | 999.7 |
| 20260504023010 | 67 | 300 | 7.0 | 14.0 | 0.00 | 0.00 | 0.00 | 36 | 1000.0 |
| 20260504021510 | 67 | 282 | 5.0 | 14.0 | 0.00 | 0.00 | 0.00 | 36 | 1000.3 |
| 20260504020003 | 67 | 294 | 3.0 | 14.0 | 0.00 | 0.00 | 0.00 | 36 | 1000.6 |
| 20260504014502 | 68 | 260 | 7.0 | 12.0 | 0.00 | 0.00 | 0.00 | 34 | 1000.8 |
| 20260504013100 | 69 | 240 | 4.0 | 10.0 | 0.00 | 0.00 | 0.00 | 33 | 1001.2 |
| 20260504011558 | 70 | 287 | 3.0 | 10.0 | 0.00 | 0.00 | 0.00 | 32 | 1001.5 |
| 20260504010100 | 71 | 296 | 4.0 | 11.0 | 0.00 | 0.00 | 0.00 | 31 | 1001.9 |
| 20260504004551 | 71 | 264 | 6.0 | 13.0 | 0.00 | 0.00 | 0.00 | 31 | 1002.2 |
| 20260504003049 | 72 | 273 | 5.0 | 13.0 | 0.00 | 0.00 | 0.00 | 30 | 1002.6 |
| 20260504001555 | 72 | 284 | 8.0 | 13.0 | 0.00 | 0.00 | 0.00 | 29 | 1002.9 |
| 20260504000046 | 72 | 304 | 7.0 | 12.0 | 0.00 | 0.00 | 0.00 | 29 | 1003.3 |
| 20260503234543 | 73 | 251 | 5.0 | 14.0 | 0.00 | 0.00 | 0.00 | 29 | 1003.6 |
| 20260503233041 | 72 | 296 | 7.0 | 18.0 | 0.00 | 0.00 | 0.00 | 29 | 1003.8 |
| 20260503231538 | 72 | 313 | 5.0 | 13.0 | 0.00 | 0.00 | 0.00 | 29 | 1004.2 |
| 20260503230050 | 73 | 282 | 7.0 | 14.0 | 0.00 | 0.00 | 0.00 | 28 | 1004.4 |
| 20260503224534 | 73 | 313 | 7.0 | 16.0 | 0.00 | 0.00 | 0.00 | 29 | 1004.8 |
| 20260503223034 | 73 | 300 | 7.0 | 16.0 | 0.00 | 0.00 | 0.00 | 28 | 1005.0 |
| 20260503221535 | 74 | 309 | 6.0 | 13.0 | 0.00 | 0.00 | 0.00 | 28 | 1005.2 |
| 20260503220034 | 73 | 303 | 10.0 | 17.0 | 0.00 | 0.00 | 0.00 | 27 | 1005.6 |
| 20260503214536 | 73 | 324 | 9.0 | 13.0 | 0.00 | 0.00 | 0.00 | 28 | 1006.0 |
| 20260503213031 | 72 | 303 | 7.0 | 18.0 | 0.00 | 0.00 | 0.00 | 29 | 1006.3 |
| 20260503211521 | 72 | 302 | 5.0 | 18.0 | 0.00 | 0.00 | 0.00 | 30 | 1006.7 |
| 20260503210020 | 72 | 300 | 6.0 | 15.0 | 0.00 | 0.00 | 0.00 | 32 | 1007.0 |
| 20260503204525 | 72 | 336 | 6.0 | 14.0 | 0.00 | 0.00 | 0.00 | 32 | 1007.4 |
| 20260503203014 | 71 | 283 | 7.0 | 15.0 | 0.00 | 0.00 | 0.00 | 31 | 1007.6 |
| 20260503201510 | 71 | 296 | 6.0 | 13.0 | 0.00 | 0.00 | 0.00 | 32 | 1007.9 |
| 20260503200007 | 70 | 324 | 2.0 | 11.0 | 0.00 | 0.00 | 0.00 | 33 | 1008.4 |
| 20260503194505 | 69 | 306 | 8.0 | 22.0 | 0.00 | 0.00 | 0.00 | 33 | 1008.9 |
| 20260503193006 | 70 | 348 | 5.0 | 9.0 | 0.00 | 0.00 | 0.00 | 33 | 1009.1 |
| 20260503191612 | 69 | 337 | 6.0 | 14.0 | 0.00 | 0.00 | 0.00 | 34 | 1009.6 |
| 20260503190058 | 68 | 294 | 6.0 | 16.0 | 0.00 | 0.00 | 0.00 | 35 | 1009.8 |
| 20260503184553 | 68 | 318 | 3.0 | 14.0 | 0.00 | 0.00 | 0.00 | 35 | 1010.1 |
| 20260503183056 | 67 | 293 | 4.0 | 15.0 | 0.00 | 0.00 | 0.00 | 35 | 1010.6 |
| 20260503181559 | 66 | 300 | 4.0 | 13.0 | 0.00 | 0.00 | 0.00 | 34 | 1011.0 |
| 20260503180050 | 66 | 334 | 4.0 | 15.0 | 0.00 | 0.00 | 0.00 | 34 | 1011.3 |
| 20260503174550 | 65 | 320 | 6.0 | 13.0 | 0.00 | 0.00 | 0.00 | 33 | 1011.7 |
| 20260503173041 | 64 | 306 | 4.0 | 12.0 | 0.00 | 0.00 | 0.00 | 35 | 1012.0 |
| 20260503171539 | 63 | 5 | 7.0 | 15.0 | 0.00 | 0.00 | 0.00 | 34 | 1012.2 |
| 20260503120104 | 38 | 331 | 3.0 | 8.0 | 0.00 | 0.00 | 0.00 | 72 | 1013.6 |
| 20260503081520 | 44 | 334 | 1.0 | 4.0 | 0.00 | 0.00 | 0.00 | 75 | 1012.2 |
| 20260503071509 | 46 | 329 | 1.0 | 4.0 | 0.00 | 0.00 | 0.00 | 74 | 1011.8 |
| 20260503054553 | 49 | 354 | 2.0 | 8.0 | 0.00 | 0.00 | 0.00 | 71 | 1011.5 |
| 20260503053050 | 49 | 311 | 2.0 | 8.0 | 0.00 | 0.00 | 0.00 | 70 | 1011.3 |
| 20260503051549 | 49 | 1 | 2.0 | 8.0 | 0.00 | 0.00 | 0.00 | 69 | 1011.1 |
| 20260503050044 | 50 | 331 | 3.0 | 7.0 | 0.00 | 0.00 | 0.00 | 66 | 1010.9 |
| 20260503044559 | 52 | 331 | 0.0 | 6.0 | 0.00 | 0.00 | 0.00 | 65 | 1010.7 |
| 20260503043043 | 53 | 356 | 1.0 | 6.0 | 0.00 | 0.00 | 0.00 | 64 | 1010.5 |
| 20260503041600 | 53 | 336 | 2.0 | 9.0 | 0.00 | 0.00 | 0.00 | 64 | 1010.4 |
| 20260503040050 | 53 | 351 | 2.0 | 9.0 | 0.00 | 0.00 | 0.00 | 63 | 1010.2 |